Weather Roundup
Issued by NWS

Home | Current Version | Previous Version | Graphics & Text | Print | Product List | Glossary Off
Versions: 1 2 3 4 5 6 7 8 9 10 11 12 13 14 15 16 17 18 19 20 21 22 23 24 25 26 27 28 29 30 31 32 33 34 35 36 37 38 39 40 41 42 43 44 45 46 47 48 49 50

000
NZUS93 KARX 022059
HRRWXR

CURRENT HOURLY OBSERVATIONS ACROSS
MUCH OF THE UPPER MISSISSIPPI VALLEY
NATIONAL WEATHER SERVICE LA CROSSE WI
400 PM CDT WED SEP 02 2015


...SOUTHEAST MINNESOTA...


CITY           SKY/WX    TMP DP  RH WIND       PRES   REMARKS
ROCHESTER      CLOUDY    81  71  71 S9        29.92S
ROCHESTER/MAYO CLOUDY    82  69  65 S12       29.91F
WINONA         CLOUDY    81  68  65 CALM      29.90F
AUSTIN         PTSUNNY   82  72  69 SW6       29.90S
ALBERT LEA     FAIR      84  70  61 SW8       29.89S
DODGE CENTER   PTSUNNY   81  70  69 SW6       29.91F
PRESTON        CLOUDY    80  70  70 S7        29.93F
OWATONNA       FAIR      82  72  69 SW3       29.89F
FARIBAULT      FAIR      84  72  65 SE3       29.89F
$$

...ELSEWHERE IN MINNESOTA...


CITY           SKY/WX    TMP DP  RH WIND       PRES   REMARKS
MINNEAPOLIS    FAIR      77  68  73 E9        29.89F
INTNL FALLS    FAIR      83  65  54 SW8       29.90F
DULUTH         PTSUNNY   71  65  81 E15       29.96F
RED WING       PTSUNNY   79  72  78 E7        29.88F
REDWOOD FALLS  FAIR      87  73  62 SE7       29.83F HX  94
MANKATO        CLOUDY    84  72  65 SE5       29.87S
WORTHINGTON    FAIR      82  72  69 S12       29.85F
FAIRMONT       FAIR      84  68  58 S9G17     29.86S
$$

...SOUTHWEST WISCONSIN...


CITY           SKY/WX    TMP DP  RH WIND       PRES   REMARKS
LA CROSSE      CLOUDY    84  68  58 S9        29.90F
PRAIRIE DU CHI PTSUNNY   85  65  51 S8        29.92F
BOSCOBEL       FAIR      88  67  49 S7        29.93F HX  91
LONE ROCK      NOT AVBL
PLATTEVILLE    FAIR      81  71  71 S12       29.97F
FORT MC COY    FAIR      85  63  47 S12G20    29.92F
VIROQUA          N/A     84  67  57 S8        29.95F
WIS DELLS      FAIR      86  63  46 SW10      29.95F
$$

...ELSEWHERE IN WISCONSIN...


CITY           SKY/WX    TMP DP  RH WIND       PRES   REMARKS
MILWAUKEE      PTSUNNY   87  68  52 SW12      29.95F HX  90
MADISON        PTSUNNY   84  67  56 S13       29.95F
GREEN BAY      FAIR      87  70  56 S9        29.93F HX  92
EAU CLAIRE     TSTM      66  64  93 NE10G25   29.93S VSB 3/4
BLACK RVR FLS  CLOUDY    87  63  45 S8        29.91F
MEDFORD        CLOUDY    67  67  98 E7        29.92F
WAUSAU         FAIR      74  69  85 E7        29.92F
WIS RAPIDS     FAIR      85  65  51 SW13G20   29.94F
MARSHFIELD     PTSUNNY   81  68  64 SW6       29.93F THUNDER
RICE LAKE      CLOUDY    68  65  91 E7        29.97F
$$

...NORTHEAST IOWA...


CITY           SKY/WX    TMP DP  RH WIND       PRES   REMARKS
DECORAH        CLOUDY    81  72  74 S6        29.93F
MASON CITY     FAIR      86  72  62 SW15      29.89F HX  92
CHARLES CITY   CLOUDY    84  73  70 SW10      29.91F HX  91
OELWEIN        FAIR      84  72  65 S14       29.93F
$$

...ELSEWHERE IN IOWA...


CITY           SKY/WX    TMP DP  RH WIND       PRES   REMARKS
DES MOINES     FAIR      89  66  46 SW15      29.89F HX  91
IOWA CITY      FAIR      84  69  60 S13       29.96F
FORT DODGE     FAIR      86  70  58 SW14G22   29.88F HX  90
$$

...NORTHERN ILLINOIS...


CITY           SKY/WX    TMP DP  RH WIND       PRES   REMARKS
CHICAGO-OHARE  PTSUNNY   89  67  47 SW15G22   29.97F HX  92
CHICAGO-MIDWAY PTSUNNY   91  68  46 W10       29.97F HX  95
MOLINE         FAIR      85  69  58 SW7       29.96F
ROCKFORD       PTSUNNY   86  69  56 SW8       29.98F HX  90
PEORIA         FAIR      92  66  42 VRB7      29.98F HX  94
$$

NOTE: "FAIR" INDICATES FEW OR NO CLOUDS BELOW 12,000 FEET WITH NO
SIGNIFICANT WEATHER AND/OR OBSTRUCTIONS TO VISIBILITY. WIND
SPEEDS ARE IN MILES-PER-HOUR.



USA.gov is the U.S. government's official web portal to all federal, state and local government web resources and services.